Weather in Zhelty Yar

Russia / Jewish Autonomous Oblast     48°34′12″N   133°03′25″E
temp.,
°C
wind,
m/s
gust,
m/s
humid.,
%
clouds,
%
prec.,
mm/h
press.,
hPa
HPBL,
m
7 may, fri
fri701:00+9wsw117330 0.0 100111
04:00+8nnw2276100 0.0 100012
07:00+7nne268579 0.0 1001170
10:00+10ene457298 0.0 1001651
13:00+12ene6762100 0.0 999960
16:00+13e71056100 0.0 9951164
19:00+10ene71372100 0.4 994888
22:00+6ene61587100 4.2 994758
8 may, sat
sat801:00+5ene71588100 1.7 992660
04:00+3ene51392100 2.3 992681
07:00+3ne51297100 4.7 993686
10:00+4ne41097100 9.9 994748
13:00+4ene51195100 0.6 996734
16:00+4ene51190100 1.0 996730
19:00+5ene71592100 2.3 996798
22:00+5ene81787100 2.7 996758
9 may, sun
sun901:00+4ene81790100 2.0 995757
04:00+4ene91889100 4.6 993853
07:00+4ene81891100 3.4 994885
10:00+4ene81692100 7.8 995750
13:00+4ne71491100 0.9 997801
16:00+7ne71385100 1.1 998870
19:00+6ne61490100 1.2 1000891
22:00+5ne51291100 2.2 1003721
10 may, mon
mon1001:00+5ne41185100 0.7 1005738
04:00+4ne3983100 0.8 1006422
07:00+5ne2582100 0.0 1008294
10:00+8ene1265100 0.0 1009637
13:00+11nw1263100 0.0 10091271
16:00+11w3471100 0.1 1009861
19:00+10wsw2379100 0.2 1010152
22:00+9wsw1284100 0.4 101151
11 may, tue
tue1101:00+8ese2388100 0.4 1013123
04:00+6e3786100 0.1 1015483
07:00+5ese2686100 0.6 1016537
10:00+5ese2383100 0.8 1017381
13:00+7e1280100 0.0 1017454
16:00+9se0174100 0.0 1016533
19:00+9e117485 0.0 1016382
22:00+7ne228685 0.0 101630